Time,TemperatureF,DewpointF,PressureIn,WindDirection,WindDirectionDegrees,WindSpeedMPH,WindSpeedGustMPH,Humidity,HourlyPrecipIn,Conditions,Clouds,dailyrainin,SoftwareType,DateUTC
2013-06-29 00:01:00,72.0,69.0,29.65,WNW,298,0.0,0.0,89,0.00,,,0.19,,2013-06-29 04:01:00,
2013-06-29 00:11:00,72.0,69.0,29.65,WNW,298,0.0,0.0,89,0.00,,,0.19,,2013-06-29 04:11:00,
2013-06-29 00:24:00,72.0,69.0,29.65,WNW,298,0.0,0.0,89,0.00,,,0.19,,2013-06-29 04:24:00,
2013-06-29 00:32:00,72.0,69.0,29.65,WNW,298,0.0,0.0,89,0.00,,,0.19,,2013-06-29 04:32:00,
2013-06-29 00:41:00,72.0,69.0,29.65,WNW,298,0.0,0.0,89,0.00,,,0.19,,2013-06-29 04:41:00,
2013-06-29 01:01:00,71.0,68.0,29.64,NNW,339,0.0,0.0,91,0.00,,,0.19,,2013-06-29 05:01:00,
2013-06-29 01:11:00,71.0,68.0,29.64,NNW,339,0.0,0.0,91,0.00,,,0.19,,2013-06-29 05:11:00,
2013-06-29 01:21:00,71.0,68.0,29.64,NNW,339,0.0,0.0,91,0.00,,,0.19,,2013-06-29 05:21:00,
2013-06-29 01:31:00,71.0,68.0,29.65,NNW,339,0.0,0.0,91,0.00,,,0.19,,2013-06-29 05:31:00,
2013-06-29 01:41:00,70.0,68.0,29.64,NNW,340,0.0,0.0,92,0.00,,,0.19,,2013-06-29 05:41:00,
2013-06-29 01:51:00,70.0,68.0,29.64,NNW,339,0.0,0.0,92,0.00,,,0.19,,2013-06-29 05:51:00,
2013-06-29 02:01:00,70.0,68.0,29.64,NNW,339,0.0,0.0,92,0.00,,,0.19,,2013-06-29 06:01:00,
2013-06-29 02:12:00,70.0,68.0,29.64,NNW,339,0.0,0.0,92,0.00,,,0.19,,2013-06-29 06:12:00,
2013-06-29 02:33:00,70.0,68.0,29.63,NNW,339,0.0,0.0,92,0.00,,,0.19,,2013-06-29 06:33:00,
2013-06-29 03:02:00,69.0,67.0,29.62,NNW,339,0.0,0.0,92,0.00,,,0.19,,2013-06-29 07:02:00,
2013-06-29 03:12:00,69.0,67.0,29.62,NNW,339,0.0,0.0,92,0.00,,,0.19,,2013-06-29 07:12:00,
2013-06-29 03:33:00,69.0,67.0,29.62,NNW,339,0.0,0.0,93,0.00,,,0.19,,2013-06-29 07:33:00,
2013-06-29 03:43:00,69.0,67.0,29.62,NNW,339,0.0,0.0,93,0.00,,,0.19,,2013-06-29 07:43:00,
2013-06-29 03:53:00,69.0,67.0,29.62,NNW,339,0.0,0.0,93,0.00,,,0.19,,2013-06-29 07:53:00,
2013-06-29 04:01:00,70.0,68.0,29.62,NNW,339,0.0,0.0,93,0.00,,,0.19,,2013-06-29 08:01:00,
2013-06-29 04:12:00,70.0,68.0,29.62,NNW,339,0.0,0.0,93,0.00,,,0.19,,2013-06-29 08:12:00,
2013-06-29 04:33:00,69.0,67.0,29.62,NNW,339,0.0,0.0,93,0.00,,,0.19,,2013-06-29 08:33:00,
2013-06-29 04:43:00,69.0,67.0,29.62,NNW,339,0.0,0.0,92,0.00,,,0.19,,2013-06-29 08:43:00,
2013-06-29 04:52:00,69.0,67.0,29.62,NNW,339,0.0,0.0,92,0.00,,,0.19,,2013-06-29 08:52:00,
2013-06-29 05:02:00,69.0,67.0,29.63,NNW,339,0.0,0.0,92,0.00,,,0.19,,2013-06-29 09:02:00,
2013-06-29 05:22:00,68.0,66.0,29.63,NNW,339,0.0,0.0,93,0.00,,,0.19,,2013-06-29 09:22:00,
2013-06-29 05:33:00,68.0,66.0,29.63,NNW,339,0.0,0.0,93,0.00,,,0.19,,2013-06-29 09:33:00,
2013-06-29 05:42:00,68.0,66.0,29.65,NNW,339,0.0,0.0,93,0.00,,,0.19,,2013-06-29 09:42:00,
2013-06-29 06:01:00,68.0,66.0,29.65,NNW,339,0.0,0.0,93,0.00,,,0.19,,2013-06-29 10:01:00,
2013-06-29 06:11:00,68.0,66.0,29.65,NNW,339,0.0,0.0,93,0.00,,,0.19,,2013-06-29 10:11:00,
2013-06-29 06:33:00,68.0,66.0,29.65,NNW,339,0.0,0.0,94,0.00,,,0.19,,2013-06-29 10:33:00,
2013-06-29 06:43:00,68.0,66.0,29.65,NNW,339,0.0,0.0,94,0.00,,,0.19,,2013-06-29 10:43:00,
2013-06-29 06:52:00,68.0,66.0,29.65,NNW,339,0.0,0.0,94,0.00,,,0.19,,2013-06-29 10:52:00,
2013-06-29 07:02:00,68.0,66.0,29.65,NNW,339,0.0,0.0,94,0.00,,,0.19,,2013-06-29 11:02:00,
2013-06-29 07:11:00,68.0,66.0,29.65,NNW,339,0.0,0.0,94,0.00,,,0.19,,2013-06-29 11:11:00,
2013-06-29 07:23:00,68.0,66.0,29.65,NNW,339,0.0,0.0,94,0.00,,,0.19,,2013-06-29 11:23:00,
2013-06-29 07:33:00,68.0,66.0,29.65,NNW,339,0.0,0.0,94,0.00,,,0.19,,2013-06-29 11:33:00,
2013-06-29 07:43:00,68.0,66.0,29.66,NNW,339,0.0,0.0,94,0.00,,,0.19,,2013-06-29 11:43:00,
2013-06-29 07:53:00,68.0,66.0,29.66,NNW,339,0.0,0.0,94,0.00,,,0.19,,2013-06-29 11:53:00,
2013-06-29 08:02:00,69.0,67.0,29.66,NNW,339,0.0,0.0,94,0.00,,,0.19,,2013-06-29 12:02:00,
2013-06-29 08:43:00,71.0,69.0,29.65,NNW,340,0.0,0.0,93,0.00,,,0.19,,2013-06-29 12:43:00,
2013-06-29 08:53:00,71.0,69.0,29.65,NNW,340,0.0,0.0,94,0.00,,,0.19,,2013-06-29 12:53:00,
2013-06-29 09:43:00,74.0,71.0,29.65,NNW,346,0.0,0.0,91,0.00,,,0.19,,2013-06-29 13:43:00,
2013-06-29 10:12:00,75.0,71.0,29.66,NNW,346,0.0,0.0,88,0.00,,,0.19,,2013-06-29 14:12:00,
2013-06-29 10:34:00,75.0,71.0,29.66,NNW,347,0.0,0.0,88,0.00,,,0.19,,2013-06-29 14:34:00,
2013-06-29 10:44:00,75.0,71.0,29.66,North,349,0.0,0.0,87,0.00,,,0.19,,2013-06-29 14:44:00,
2013-06-29 10:53:00,75.0,71.0,29.66,North,349,0.0,0.0,88,0.00,,,0.19,,2013-06-29 14:53:00,
2013-06-29 11:11:00,75.0,71.0,29.67,North,349,0.0,0.0,86,0.00,,,0.19,,2013-06-29 15:11:00,
2013-06-29 11:22:00,75.0,71.0,29.67,North,349,0.0,0.0,86,0.00,,,0.19,,2013-06-29 15:22:00,
2013-06-29 11:33:00,77.0,72.0,29.67,South,178,0.0,0.0,85,0.00,,,0.19,,2013-06-29 15:33:00,
2013-06-29 11:42:00,77.0,72.0,29.67,SSW,199,0.0,0.0,85,0.00,,,0.19,,2013-06-29 15:42:00,
2013-06-29 11:53:00,77.0,72.0,29.67,SSE,155,0.0,0.0,84,0.00,,,0.19,,2013-06-29 15:53:00,
2013-06-29 12:02:00,77.0,71.0,29.66,SSE,155,0.0,0.0,83,0.00,,,0.19,,2013-06-29 16:02:00,
2013-06-29 12:12:00,78.0,72.0,29.66,SSE,157,0.0,0.0,82,0.00,,,0.19,,2013-06-29 16:12:00,
2013-06-29 12:22:00,78.0,72.0,29.66,SSE,157,0.0,0.0,82,0.00,,,0.19,,2013-06-29 16:22:00,
2013-06-29 12:33:00,79.0,72.0,29.66,SSE,151,0.0,0.0,80,0.00,,,0.19,,2013-06-29 16:33:00,
2013-06-29 12:43:00,79.0,71.0,29.66,NNE,24,0.0,0.0,77,0.00,,,0.19,,2013-06-29 16:43:00,
2013-06-29 12:53:00,79.0,70.0,29.66,SSE,155,0.0,0.0,75,0.00,,,0.19,,2013-06-29 16:53:00,
2013-06-29 13:02:00,79.0,70.0,29.66,SSE,154,0.0,0.0,75,0.00,,,0.19,,2013-06-29 17:02:00,
2013-06-29 13:12:00,80.0,71.0,29.66,SE,137,0.0,0.0,73,0.00,,,0.19,,2013-06-29 17:12:00,
2013-06-29 13:23:00,80.0,71.0,29.66,SSE,164,0.0,0.0,73,0.00,,,0.19,,2013-06-29 17:23:00,
2013-06-29 13:34:00,81.0,71.0,29.65,SE,134,0.0,0.0,72,0.00,,,0.19,,2013-06-29 17:34:00,
2013-06-29 13:42:00,81.0,71.0,29.65,SE,134,0.0,0.0,72,0.00,,,0.19,,2013-06-29 17:42:00,
2013-06-29 13:52:00,82.0,71.0,29.65,North,357,0.0,0.0,69,0.00,,,0.19,,2013-06-29 17:52:00,
2013-06-29 14:02:00,82.0,71.0,29.64,East,89,0.0,0.0,69,0.00,,,0.19,,2013-06-29 18:02:00,
2013-06-29 14:12:00,82.0,68.0,29.64,SSW,196,0.0,0.0,63,0.00,,,0.19,,2013-06-29 18:12:00,
2013-06-29 14:22:00,82.0,69.0,29.64,ESE,112,0.0,0.0,66,0.00,,,0.19,,2013-06-29 18:22:00,
2013-06-29 14:34:00,82.0,69.0,29.64,ESE,112,0.0,0.0,66,0.00,,,0.19,,2013-06-29 18:34:00,
2013-06-29 14:43:00,82.0,68.0,29.64,North,6,0.0,0.0,62,0.00,,,0.19,,2013-06-29 18:43:00,
2013-06-29 14:52:00,83.0,68.0,29.64,North,357,0.0,0.0,60,0.00,,,0.19,,2013-06-29 18:52:00,
2013-06-29 15:01:00,83.0,67.0,29.64,North,0,0.0,0.0,59,0.00,,,0.19,,2013-06-29 19:01:00,
2013-06-29 15:12:00,83.0,68.0,29.63,North,359,0.0,0.0,60,0.00,,,0.19,,2013-06-29 19:12:00,
2013-06-29 15:22:00,83.0,67.0,29.63,NNW,347,0.0,0.0,58,0.00,,,0.19,,2013-06-29 19:22:00,
2013-06-29 15:34:00,83.0,66.0,29.63,NW,325,0.0,0.0,57,0.00,,,0.19,,2013-06-29 19:34:00,
2013-06-29 15:43:00,83.0,65.0,29.63,NNW,339,0.0,0.0,54,0.00,,,0.19,,2013-06-29 19:43:00,
2013-06-29 15:54:00,83.0,65.0,29.63,North,8,0.0,0.0,54,0.00,,,0.19,,2013-06-29 19:54:00,
2013-06-29 16:02:00,83.0,64.0,29.63,NE,48,0.0,0.0,52,0.00,,,0.19,,2013-06-29 20:02:00,
2013-06-29 16:12:00,84.0,65.0,29.63,North,357,0.0,0.0,53,0.00,,,0.19,,2013-06-29 20:12:00,
2013-06-29 16:23:00,84.0,66.0,29.62,NNW,342,0.0,0.0,55,0.00,,,0.19,,2013-06-29 20:23:00,
2013-06-29 16:33:00,83.0,64.0,29.62,North,0,0.0,0.0,53,0.00,,,0.19,,2013-06-29 20:33:00,
2013-06-29 16:43:00,83.0,64.0,29.62,North,357,0.0,0.0,53,0.00,,,0.19,,2013-06-29 20:43:00,
2013-06-29 16:52:00,84.0,65.0,29.62,North,357,0.0,0.0,53,0.00,,,0.19,,2013-06-29 20:52:00,
2013-06-29 17:02:00,84.0,66.0,29.62,NNW,339,0.0,0.0,55,0.00,,,0.19,,2013-06-29 21:02:00,
2013-06-29 17:11:00,84.0,66.0,29.62,NNW,339,0.0,0.0,55,0.00,,,0.19,,2013-06-29 21:11:00,
2013-06-29 17:32:00,83.0,65.0,29.62,North,359,0.0,0.0,55,0.00,,,0.19,,2013-06-29 21:32:00,
2013-06-29 17:42:00,83.0,65.0,29.62,North,0,0.0,0.0,55,0.00,,,0.19,,2013-06-29 21:42:00,
2013-06-29 17:52:00,84.0,67.0,29.61,North,359,0.0,0.0,57,0.00,,,0.19,,2013-06-29 21:52:00,
2013-06-29 18:01:00,83.0,66.0,29.61,NNW,336,0.0,0.0,57,0.00,,,0.01,,2013-06-29 22:01:00,
2013-06-29 18:11:00,83.0,64.0,29.61,NNE,14,0.0,0.0,53,0.00,,,0.01,,2013-06-29 22:11:00,
2013-06-29 18:21:00,83.0,64.0,29.61,North,3,0.0,0.0,53,0.00,,,0.01,,2013-06-29 22:21:00,
2013-06-29 18:33:00,83.0,64.0,29.61,NW,322,0.0,0.0,52,0.00,,,0.01,,2013-06-29 22:33:00,
2013-06-29 18:43:00,84.0,64.0,29.61,NNW,330,0.0,0.0,52,0.00,,,0.01,,2013-06-29 22:43:00,
2013-06-29 18:53:00,84.0,64.0,29.61,NNW,330,0.0,0.0,52,0.00,,,0.01,,2013-06-29 22:53:00,
2013-06-29 19:02:00,84.0,65.0,29.61,NNW,330,0.0,0.0,53,0.00,,,0.01,,2013-06-29 23:02:00,
2013-06-29 19:12:00,85.0,66.0,29.61,NNW,330,0.0,0.0,54,0.00,,,0.01,,2013-06-29 23:12:00,
2013-06-29 19:23:00,85.0,66.0,29.61,NNW,333,0.0,0.0,54,0.00,,,0.01,,2013-06-29 23:23:00,
2013-06-29 19:34:00,84.0,66.0,29.62,NNW,330,0.0,0.0,55,0.00,,,0.01,,2013-06-29 23:34:00,
2013-06-29 19:43:00,83.0,66.0,29.62,NW,309,0.0,0.0,56,0.00,,,0.01,,2013-06-29 23:43:00,
2013-06-29 19:52:00,82.0,65.0,29.62,NW,309,0.0,0.0,57,0.00,,,0.01,,2013-06-29 23:52:00,
2013-06-29 20:02:00,82.0,66.0,29.62,NW,308,0.0,0.0,58,0.00,,,0.01,,2013-06-30 00:02:00,
2013-06-29 20:12:00,81.0,65.0,29.62,NW,308,0.0,0.0,59,0.00,,,0.01,,2013-06-30 00:12:00,
2013-06-29 20:22:00,80.0,66.0,29.62,WNW,296,0.0,0.0,62,0.00,,,0.01,,2013-06-30 00:22:00,
2013-06-29 20:33:00,79.0,65.0,29.62,WNW,282,0.0,0.0,63,0.00,,,0.01,,2013-06-30 00:33:00,
2013-06-29 20:43:00,79.0,65.0,29.62,WNW,282,0.0,0.0,63,0.00,,,0.01,,2013-06-30 00:43:00,
2013-06-29 20:52:00,79.0,65.0,29.62,WNW,282,0.0,0.0,63,0.00,,,0.01,,2013-06-30 00:52:00,
2013-06-29 21:01:00,78.0,66.0,29.62,WNW,282,0.0,0.0,67,0.00,,,0.01,,2013-06-30 01:01:00,
2013-06-29 21:11:00,78.0,66.0,29.62,WNW,282,0.0,0.0,67,0.00,,,0.01,,2013-06-30 01:11:00,
2013-06-29 21:22:00,77.0,66.0,29.63,WNW,282,0.0,0.0,69,0.00,,,0.01,,2013-06-30 01:22:00,
2013-06-29 21:33:00,76.0,65.0,29.64,WNW,282,0.0,0.0,69,0.00,,,0.01,,2013-06-30 01:33:00,
2013-06-29 21:44:00,76.0,66.0,29.64,WNW,285,0.0,0.0,71,0.00,,,0.01,,2013-06-30 01:44:00,
2013-06-29 21:53:00,75.0,65.0,29.65,WNW,285,0.0,0.0,72,0.00,,,0.01,,2013-06-30 01:53:00,
2013-06-29 22:02:00,75.0,66.0,29.65,WNW,285,0.0,0.0,73,0.00,,,0.01,,2013-06-30 02:02:00,
2013-06-29 22:11:00,75.0,67.0,29.66,WNW,285,0.0,0.0,75,0.00,,,0.01,,2013-06-30 02:11:00,
2013-06-29 22:23:00,75.0,67.0,29.66,WNW,285,0.0,0.0,76,0.00,,,0.01,,2013-06-30 02:23:00,
2013-06-29 22:34:00,75.0,67.0,29.66,WNW,285,0.0,0.0,76,0.00,,,0.01,,2013-06-30 02:34:00,
2013-06-29 22:43:00,75.0,68.0,29.66,WNW,285,0.0,0.0,79,0.00,,,0.01,,2013-06-30 02:43:00,
2013-06-29 22:53:00,75.0,68.0,29.66,WNW,285,0.0,0.0,79,0.00,,,0.01,,2013-06-30 02:53:00,
2013-06-29 23:01:00,75.0,68.0,29.67,WNW,285,0.0,0.0,80,0.00,,,0.01,,2013-06-30 03:01:00,
2013-06-29 23:12:00,75.0,69.0,29.67,WNW,285,0.0,0.0,81,0.00,,,0.01,,2013-06-30 03:12:00,
2013-06-29 23:23:00,74.0,68.0,29.67,WNW,285,0.0,0.0,81,0.00,,,0.01,,2013-06-30 03:23:00,
2013-06-29 23:33:00,74.0,68.0,29.67,WNW,285,0.0,0.0,82,0.00,,,0.00,,2013-06-30 03:33:00,
2013-06-29 23:43:00,74.0,68.0,29.67,WNW,285,0.0,0.0,83,0.00,,,0.00,,2013-06-30 03:43:00,
2013-06-29 23:53:00,73.0,68.0,29.67,WNW,285,0.0,0.0,83,0.00,,,0.00,,2013-06-30 03:53:00,